Hourly Data Report for November 28, 2017

All times are specified in Local Standard Time (LST). Add 1 hour to adjust for Daylight Saving Time where and when it is observed.

GREENWOOD A
NOVA SCOTIA

44°59'00.000" N
64°55'00.000" W
28.00 m
8202000
71397
YZX

Download Data

Hourly Data (November 2017)
Hourly Data Report for November 28, 2017
Temp Definition
°C
Dew Point Temp Definition
°C
Rel Hum Definition
%
Wind Dir Definition
10's deg

Wind Spd Definition
km/h
Visibility Definition
km
Stn Press Definition
kPa
Hmdx Definition


Wind Chill Definition


Weather Definition


TIME
00:00 -5.2 -10.4 67 33 19 24.1 101.57   -12 Mostly Cloudy
01:00 -5.2 -10.4 67 33 19 24.1 101.64   -12 Mostly Cloudy
02:00 -5.5 -10.8 66 32 28 24.1 101.77   -13 Mostly Cloudy
03:00 -5.6 -10.5 68 32 22 24.1 101.90   -13 Mostly Cloudy
04:00 -5.1 -10.6 65 34 26 24.1 101.96   -13 Mostly Cloudy
05:00 -5.1 -10.6 65 35 17 24.1 102.12   -11 Mostly Cloudy
06:00 -3.4 -9.0 65 34 15 24.1 102.25   -9 Cloudy
07:00 -4.4 -8.9 71 33 9 24.1 102.34   -8 Mainly Clear
08:00 -5.0 -8.6 76 31 15 24.1 102.49   -11 Mainly Clear
09:00 -4.1 -8.1 74 31 11 24.1 102.61   -9 Mainly Clear
10:00 -2.9 -7.6 70 34 11 24.1 102.56   -7 Mainly Clear
11:00 -2.0 -7.0 69 30 15 24.1 102.61   -7 Mainly Clear
12:00 -1.2 -6.6 67 29 19 24.1 102.58   -7 Mainly Clear
13:00 -0.9 -6.9 64 28 17 24.1 102.57   -6 Mainly Clear
14:00 -0.7 -6.3 66 28 17 24.1 102.55   -6 Mostly Cloudy
15:00 -0.4 -9.5 50 26 17 24.1 102.56   -5 Mostly Cloudy
16:00 -1.0 -8.1 59 27 9 24.1 102.56   -4 Mostly Cloudy
17:00 -1.1 -6.5 67 19 6 24.1 102.52   -3 Mostly Cloudy
18:00 -1.4 -5.6 73 18 6 24.1 102.49   -4 Mainly Clear
19:00 -2.9 -6.9 74 16 7 24.1 102.42   -6 Mostly Cloudy
20:00 -1.5 -4.8 78 20 9 24.1 102.37   -5 Mostly Cloudy
21:00 -1.5 -6.7 68 18 9 24.1 102.28   -5 Mostly Cloudy
22:00 -1.3 -5.8 71 20 9 24.1 102.21   -5 Mostly Cloudy
23:00 -1.1 -5.2 74 18 15 24.1 102.09   -6 Mostly Cloudy

Notes on Data Quality.

Legend

  • E = Estimated
  • M = Missing
  • NA = Not Available
  • ‡ = Partner data that is not subject to review by the National Climate Archives
Date modified: